User: anonymous   Login
Location: Arbon
(43.0005°N, 0.7472°E)
Time: 18:26:16
(UTC+00:00)
Language:

Cosmos 2360 Rocket - Orbit

View from above orbital plane
View from above orbital plane
View from above satellite
View from above satellite

Ground track
Ground track

The orbit data is extracted from the following two-line orbital elements,

1 25407U 98045B   20298.49085468 -.00000267  00000-0 -11146-3 0  9992
2 25407  71.0124 346.4199 0006077 153.5701 206.5733 14.15828977149612
Epoch (UTC): 24 October 2020 11:46:49
Eccentricity: 0.0006077
inclination: 71.0124°
perigee height: 835 km
apogee height: 844 km
right ascension of ascending node: 346.4199°
argument of perigee: 153.5701°
revolutions per day: 14.15828977
mean anomaly at epoch: 206.5733°
orbit number at epoch: 14961

The dashed part of the orbit path shows where the satellite is in the earth's shadow,  

DLR